User: anonymous   Login
Location: Unspecified
(0.0000°N, 0.0000°E)
Time: 21:08:09
(UTC+00:00)
Language:

STARLINK-11347 [DTC] - Orbit

View from above orbital plane
View from above orbital plane
View from above satellite
View from above satellite

Ground track
Ground track

The orbit is defined by the following mean orbital elements,

1 63054U          26144.77478971 +.00000000 +00000-0 +15432-2 0 00005
2 63054  43.0009 277.0315 0001175  41.8416 318.2541 15.70957792    05
Epoch (UTC): 24 May 2026 18:35:41
Eccentricity: 0.0001175
inclination: 43.0009°
perigee height: 355 km
apogee height: 357 km
right ascension of ascending node: 277.0315°
argument of perigee: 41.8416°
revolutions per day: 15.70957792
mean anomaly at epoch: 318.2541°

The dashed part of the orbit path shows where the satellite is in the earth's shadow,  

DLR